sat.trackr.live / text

‹ back to catalog

STARLINK-5729

NORAD 55596 · 2023-020AD

PAYLOAD ACTIVE UNKNOWN

§ Identity

Operator
Country
US
Launch date
2023-02-12
Launch site
AFETR
Launch vehicle
Mass (kg)
RCS (m²)

Purposes: comms

External: N2YO · Heavens-Above · Gunter

§ Orbital elements

Epoch: 2026-09-20T12:53:53.779200Z

Period
94.27 min
Inclination
43.0036°
Eccentricity
0.0000981
Mean motion
15.27573634 rev/d
Perigee alt
482.4 km
Apogee alt
483.7 km
Semi-major
6,861.2 km
B*
-1.4669e-5
RAAN
344.6843°
Arg perigee
282.6400°
Mean anomaly
77.4342°
Rev number
19,871

§ Raw data

STARLINK-57291 55596U 23020AD  26263.53742800 -.00000666  00000+0 -14669-4 0  99942 55596  43.0036 344.6843 0000981 282.6400  77.4342 15.27573634198716

JSON: /api/v1/satellites/55596 · /tle

For live sub-satellite position, see the globe view (requires WebGL).

§ Visibility from observer

Set your observer location to see the next 7 days of passes ≥ 10°. The values pass through the URL so the page stays shareable.

No JS? Fill the form by hand. The geolocation button needs JavaScript.